#timestamp,LO_Frequency,Hit,StdDev 
1658822415.7,286047000.6,N
1658822435.5,286046999.9,N
1658822455.4,286047000.1,N
1658822475.2,286047000.4,N
1658822495.0,286046999.7,N
1658822495.9,286046999.7,N
1658822515.8,286047000.4,N
1658822535.6,286047001.5,N
1658822555.5,286047004.4,Y
1658822575.3,286047002.6,P
1658822595.1,286047001.8,N
1658822615.9,286047002.5,P
1658822635.7,286047002.4,Y
1658822655.6,286046998.2,P
1658822675.4,286046998.2,N
1658822695.2,286046998.5,N
1658822715.1,286046998.8,N
1658822716.0,286046998.8,N
1658822735.8,286046998.9,N
1658822755.6,286047000.4,N
1658822775.5,286046998.4,N
1658822795.3,286046998.5,N
1658822815.2,286046998.4,N
1658822835.9,286046996.9,N
1658822855.7,286046999.4,N
1658822875.6,286046998.6,N
1658822895.4,286046998.1,N
1658822915.2,286046998.9,N
1658822935.1,286046999.6,N
1658822936.0,286046999.6,N
1658822955.8,286046996.9,Y
1658822975.7,286046998.9,P
1658822995.5,286046998.3,P
1658823015.3,286047000.8,N
1658823035.2,286047001.1,N
1658823055.0,286046998.8,N
1658823055.9,286046998.8,N
1658823075.8,286046998.3,N
1658823095.6,286047001.0,N
1658823115.4,286046998.6,N
1658823135.3,286046999.0,N
1658823155.1,286046996.5,Y
1658823175.9,286046998.7,P
1658823195.7,286047001.2,P
1658823215.5,286046998.4,N
1658823235.4,286047001.2,N
1658823255.2,286046998.4,N
1658823275.0,286046999.0,N
1658823275.9,286046999.0,N
1658823295.8,286046998.5,N
1658823315.6,286046998.4,N
1658823335.5,286046999.1,N
1658823355.3,286047001.1,N
1658823375.1,286047000.8,N
1658823395.9,286046998.8,N
1658823415.7,286046998.5,N
1658823435.5,286047000.8,N
1658823455.4,286047001.0,N
1658823475.2,286046998.8,N
1658823495.1,286046998.5,N
1658823496.0,286046998.5,N
1658823515.8,286046998.1,N
1658823535.6,286047001.0,N
1658823555.5,286046998.3,N
1658823575.3,286046998.7,N
1658823595.1,286047000.9,N
1658823615.9,286047000.6,N
1658823635.7,286046998.4,N
1658823655.6,286046998.7,N
1658823675.4,286046998.2,N
1658823695.2,286047001.2,N
1658823715.1,286047001.0,N
1658823716.0,286047001.0,N
1658823735.8,286047000.2,N
1658823755.6,286046998.6,N
1658823775.5,286047000.4,N
1658823795.3,286046998.5,N
1658823815.2,286047000.5,N
1658823835.9,286047000.3,N
1658823855.7,286047000.3,N
1658823875.6,286047000.0,N
1658823895.4,286047001.1,N
1658823915.2,286047000.6,N
1658823935.1,286047000.5,N
1658823936.0,286047000.5,N
1658823955.8,286047001.1,N
1658823975.7,286047001.1,N
1658823995.5,286047001.1,N
1658824015.3,286046998.2,N
1658824035.2,286046998.5,N
1658824055.0,286047000.8,N
1658824055.9,286047000.8,N
1658824075.8,286047002.7,N
1658824095.6,286047000.0,N
1658824115.4,286047001.1,N
1658824135.3,286046998.3,N
1658824155.1,286046998.4,N
1658824175.8,286046999.0,N
1658824195.7,286046998.1,N
1658824215.5,286046999.2,N
1658824235.4,286046996.5,Y
1658824255.2,286046997.6,P
1658824275.0,286046996.5,N
1658824275.9,286046996.5,N
1658824295.8,286046997.9,N
1658824315.6,286046997.2,N
1658824335.5,286046999.5,N
1658824355.3,286046999.4,N
1658824375.1,286046996.9,N
1658824395.9,286046996.9,N
1658824415.7,286046999.5,N
1658824435.5,286046997.7,N
1658824455.4,286046997.2,N
1658824475.2,286046996.7,N
1658824495.0,286046996.7,N
1658824496.0,286046996.7,N
1658824515.8,286046997.1,N
1658824535.6,286046996.6,N
1658824555.5,286046999.3,N
1658824575.3,286046998.7,N
1658824625.2,286046996.6,E
1658824635.1,286047001.1,N
1658824655.8,286047002.7,P
1658824675.7,286047002.5,P
1658824695.5,286046999.9,N
1658824715.4,286047000.9,N
1658824735.2,286046999.8,N
1658824755.0,286047002.5,N
1658824755.9,286047002.5,N
1658824775.8,286047001.7,N
1658824795.6,286047001.5,N
1658824815.5,286047001.8,N
1658824835.3,286047002.5,N
1658824855.1,286047002.7,N
1658824875.9,286047001.3,N
1658824895.7,286047001.6,N
1658824915.5,286047001.9,N
1658824935.4,286047002.8,Y
1658824955.2,286047000.7,P
1658824975.1,286046998.6,N
1658824976.0,286046998.6,N
1658824995.8,286047001.0,N
1658825015.6,286047000.0,N
1658825035.5,286047002.8,N
1658825055.3,286047000.2,N
1658825075.1,286047000.0,N
1658825095.9,286047000.4,N
1658825115.7,286047000.8,N
1658825135.6,286047001.2,N
1658825155.4,286047000.9,N
1658825175.2,286047000.7,N
1658825195.1,286047000.8,N
1658825196.0,286047000.8,N
1658825215.8,286046998.1,N
1658825235.6,286046999.2,N
1658825255.5,286046998.6,N
1658825275.3,286046998.9,N
1658825295.2,286046998.2,N
1658825315.9,286046998.1,N
1658825335.7,286046998.3,N
1658825355.6,286046999.9,N
1658825375.4,286046998.2,N
1658825395.2,286046999.4,N
1658825415.1,286046998.1,N
1658825416.0,286046998.1,N
1658825435.8,286047000.7,N
1658825455.7,286046998.9,N
1658825475.5,286046999.2,N
1658825495.3,286046997.1,N
1658825515.2,286046996.5,N
1658825535.0,286046997.2,N
1658825535.9,286046997.2,N
1658825555.7,286046997.0,N
1658825575.6,286046997.7,N
1658825595.4,286046996.8,N
1658825615.3,286046996.5,N
1658825635.1,286046997.1,N
1658825636.0,286046997.1,N
1658825655.8,286046996.7,N
1658825675.7,286046996.6,N
1658825695.5,286046997.1,N
1658825715.4,286046996.9,N
1658825735.2,286046997.1,N
1658825755.0,286046997.2,N
1658825755.9,286046997.2,N
1658825775.8,286046996.8,Y
1658825795.6,286046998.6,P
1658825815.5,286046998.2,P
1658825835.3,286047000.4,N
1658825855.1,286047000.8,N
1658825875.9,286046999.9,N
1658825895.7,286047001.0,N
1658825915.6,286047001.2,N
1658825935.4,286046998.3,N
1658825955.2,286047000.6,N
1658825975.1,286047001.2,N
1658825976.0,286047001.2,N
1658825995.8,286047000.1,N
